CW8081 Weather Reports


Display with metric or nautical units.
time (UTC)temp
F
wind
direction
speed
MPH
gust
MPH
rain 1hr
in
rain 24hr
in
rain mn
in
humidity
%
barometer
mb
20260507120104 68 304 0.0 0.0 0.00 0.01 0.01 77 1017.9
20260507114604 67 301 0.0 0.0 0.01 0.01 0.01 77 1017.9
20260507114104 68 301 0.0 0.0 0.01 0.01 0.01 76 1018.3
20260507113604 68 297 0.0 0.0 0.01 0.01 0.01 76 1018.3
20260507111104 68 296 0.0 2.0 0.01 0.01 0.01 74 1018.4
20260507110604 68 296 0.0 0.0 0.01 0.01 0.01 74 1018.4
20260507110105 68 296 0.0 0.0 0.01 0.01 0.01 74 1018.4
20260507104604 69 297 0.0 0.0 0.00 0.00 0.00 71 1018.3
20260507104104 69 297 0.0 0.0 0.00 0.00 0.00 70 1018.3
20260507103605 69 297 0.0 0.0 0.00 0.00 0.00 69 1018.3
20260507101104 69 280 0.0 0.0 0.00 0.00 0.00 67 1017.8
20260507100604 69 326 0.0 0.0 0.00 0.00 0.00 67 1017.8
20260507093104 69 0 0.0 0.0 0.00 0.00 0.00 66 1017.8
20260507091104 67 0 0.0 0.0 0.00 0.00 0.00 68 1017.4
20260507083604 66 0 0.0 0.0 0.00 0.00 0.00 74 1017.2
20260507083104 67 0 0.0 0.0 0.00 0.00 0.00 76 1016.6
20260507081604 66 0 0.0 0.0 0.00 0.00 0.00 77 1016.6
20260507080604 66 0 0.0 0.0 0.00 0.00 0.00 76 1016.6
20260507074104 66 352 0.0 0.0 0.00 0.00 0.00 75 1016.6
20260507073104 67 0 0.0 0.0 0.00 0.00 0.00 73 1016.6
20260507071604 67 236 0.0 0.0 0.00 0.00 0.00 74 1016.6
20260507070104 66 0 0.0 0.0 0.00 0.00 0.00 75 1016.6
20260507064604 66 0 0.0 0.0 0.00 0.00 0.00 74 1016.6
20260507064104 65 0 0.0 0.0 0.00 0.00 0.00 73 1016.6
20260507063104 65 0 0.0 0.0 0.00 0.00 0.00 73 1016.6
20260507060604 65 0 0.0 0.0 0.00 0.00 0.00 77 1016.0
20260507060105 64 5 0.0 0.0 0.00 0.00 0.00 77 1016.0
20260507054104 63 5 0.0 0.0 0.00 0.00 0.00 79 1016.0
20260507051108 61 5 0.0 0.0 0.00 0.00 0.00 84 1016.0
20260507050604 61 5 0.0 0.0 0.00 0.00 0.00 84 1016.0
20260507050104 60 5 0.0 0.0 0.00 0.00 0.00 85 1016.0
20260507043604 59 5 0.0 0.0 0.00 0.00 0.00 86 1015.9
20260507041604 57 5 0.0 0.0 0.00 0.00 0.00 86 1015.7
20260507040604 57 5 0.0 0.0 0.00 0.00 0.00 86 1015.7
20260507034605 57 5 0.0 0.0 0.00 0.00 0.00 85 1015.7
20260507033604 57 5 0.0 0.0 0.00 0.00 0.00 85 1015.4
20260507030104 57 5 0.0 1.0 0.00 0.00 0.00 85 1015.4
20260507024104 57 5 0.0 0.0 0.00 0.00 0.00 85 1015.2
20260507020104 58 5 0.0 1.0 0.00 0.00 0.00 85 1014.8
20260507014604 58 5 0.0 1.0 0.00 0.00 0.00 84 1014.8
20260507011104 59 5 0.0 0.0 0.00 0.00 0.00 84 1014.8
20260507010604 59 5 0.0 0.0 0.00 0.00 0.00 83 1014.8
20260507003604 59 5 0.0 0.0 0.00 0.00 0.00 84 1014.8
20260507001104 59 5 0.0 1.0 0.00 0.00 0.00 84 1014.8
20260507000105 59 5 0.0 1.0 0.00 0.00 0.00 84 1014.8
20260506234105 60 5 0.0 0.0 0.00 0.00 0.00 83 1015.0
20260506230105 60 5 0.0 0.0 0.00 0.00 0.00 82 1015.1
20260506221104 62 5 0.0 0.0 0.00 0.00 0.00 83 1015.2
20260506220104 62 5 0.0 0.0 0.00 0.00 0.00 83 1015.2
20260506211604 64 357 0.0 0.0 0.00 0.00 0.00 83 1015.2
20260506211106 64 0 0.0 0.0 0.00 0.00 0.00 83 1015.2
20260506210105 64 355 0.0 0.0 0.00 0.00 0.00 83 1015.2
20260506204604 64 0 0.0 0.0 0.00 0.00 0.00 84 1015.1
20260506204104 64 266 0.0 0.0 0.00 0.00 0.00 84 1015.1
20260506201604 64 356 0.0 0.0 0.00 0.00 0.00 84 1014.8
20260506200604 64 296 0.0 0.0 0.00 0.00 0.00 84 1014.8
20260506194604 63 0 0.0 0.0 0.00 0.00 0.00 84 1014.4
20260506193604 63 0 0.0 0.0 0.00 0.00 0.00 83 1014.4
20260506191604 63 0 0.0 0.0 0.00 0.00 0.00 83 1014.4
20260506183604 64 0 0.0 0.0 0.00 0.00 0.00 82 1013.9
20260506181604 65 0 0.0 0.0 0.00 0.00 0.00 81 1013.9
20260506180604 65 0 0.0 0.0 0.00 0.00 0.00 81 1013.7
20260506174104 66 0 0.0 0.0 0.00 0.00 0.00 80 1013.5
20260506173104 66 0 0.0 1.0 0.00 0.00 0.00 79 1013.4
20260506170604 68 0 0.0 0.0 0.00 0.00 0.00 76 1013.4
20260506164604 70 0 0.0 0.0 0.00 0.00 0.00 73 1013.4
20260506164104 70 0 0.0 0.0 0.00 0.00 0.00 72 1013.4
20260506163104 71 0 0.0 0.0 0.00 0.00 0.00 70 1013.4
20260506161604 72 0 0.0 0.0 0.00 0.00 0.00 67 1013.3
20260506151105 75 0 0.0 0.0 0.00 0.00 0.00 59 1013.4
20260506150104 76 0 0.0 1.0 0.00 0.00 0.00 57 1013.6
20260506144604 77 0 0.0 0.0 0.00 0.00 0.00 55 1013.6
20260506143104 79 0 0.0 1.0 0.00 0.00 0.00 51 1013.6
20260506134604 78 0 0.0 0.0 0.00 0.00 0.00 45 1013.7
20260506133604 78 0 0.0 0.0 0.00 0.00 0.00 48 1013.7
20260506131605 77 0 0.0 1.0 0.00 0.00 0.00 54 1014.0
20260506131104 77 0 0.0 0.0 0.00 0.00 0.00 53 1014.0
20260506130604 78 0 0.0 0.0 0.00 0.00 0.00 53 1014.0
20260506130104 78 359 0.0 2.0 0.00 0.00 0.00 52 1014.0
20260506124604 78 0 0.0 0.0 0.00 0.00 0.00 52 1014.3
20260506123604 78 0 0.0 0.0 0.00 0.00 0.00 53 1014.3